Location: St. Louis
(38.6270°N, 90.1994°W)
Time: 01:13:08
(UTC-06:00)

Vanguard 2 - Pass Details

Date: 03 December 2021
Orbit: 553 x 2936 km, 32.9° (Epoch: 16 January)

Event Time Altitude Azimuth Distance (km) Brightness Sun altitude
Rises 15:53:01 0° 265° (W) 3,316 12.0 6.9°
Reaches altitude 10° 15:55:07 10° 260° (W) 2,579 11.6 6.5°
Maximum altitude 16:01:09 54° 184° (S) 1,462 9.4 5.6°
Drops below altitude 10° 16:11:13 10° 111° (ESE) 4,213 11.0 3.9°
Sets 16:15:36 0° 108° (ESE) 5,604 11.5 3.2°
